Regional Weather Roundup
Issued by NWS

Home | Current Version | Previous Version | Graphics & Text | Print | Product List | Glossary On
Versions: 1 2 3 4 5 6 7 8 9 10 11 12 13 14 15 16 17 18 19 20 21 22 23 24 25 26 27 28 29 30 31 32 33 34 35 36 37 38 39 40 41 42 43 44 45 46 47 48 49 50
000
ASUS43 KLMK 311202
RWRKY
KENTUCKY REGIONAL WEATHER ROUNDUP
NATIONAL WEATHER SERVICE LOUISVILLE KY
800 AM EDT MON AUG 31 2015

NOTE "FAIR" INDICATES FEW OR NO CLOUDS BELOW 12,000 FEET
WITH NO SIGNIFICANT WEATHER AND/OR OBSTRUCTIONS TO VISIBILITY.

KYZ001>023-026-027-061>063-070>075-311300-
WESTERN AND SOUTH CENTRAL KENTUCKY

CITY           SKY/WX    TMP DP  RH WIND       PRES   REMARKS
PADUCAH        MOCLDY    65  64  97 CALM      30.10R FOG
HENDERSON      CLEAR     64  61  88 CALM      30.10R
OWENSBORO      CLEAR     67  66  96 CALM      30.12R
HOPKINSVILLE   CLEAR     65  64  98 E3        30.12R
BOWLING GREEN  CLEAR     64  62  93 CALM      30.13R FOG
GLASGOW        NOT AVBL
$$

KYZ024-025-028>034-038-045-046-053-311300-
NORTH CENTRAL KENTUCKY

CITY           SKY/WX    TMP DP  RH WIND       PRES   REMARKS
LOUISVILLE/SDF PTCLDY    69  65  86 CALM      30.12R
LOUISVILLE/LOU CLEAR     68  65  90 CALM      30.13R
FORT KNOX      CLEAR     62  61  96 CALM      30.12R
$$

KYZ035>037-039>044-047>052-055>060-089>105-311300-
NORTHEAST KENTUCKY

CITY           SKY/WX    TMP DP  RH WIND       PRES   REMARKS
LEXINGTON      CLOUDY    68  65  90 CALM      30.15R
COVINGTON      PTCLDY    67  65  93 SW3       30.13R
FRANKFORT      CLEAR     65  62  90 CALM      30.13R
$$

KYZ054-064>069-076>088-106>120-311300-
SOUTHEAST KENTUCKY

CITY           SKY/WX    TMP DP  RH WIND       PRES   REMARKS
JACKSON        FOG       66  65  96 CALM      30.16R VSB 1/2
LONDON         CLEAR     66  61  84 CALM      30.16R HAZE
SOMERSET       NOT AVBL
MIDDLESBORO    CLOUDY    62  62  98 CALM      30.17R FOG
MONTICELLO     FOG       62  62 100 CALM      30.18R VSB<1/4
$$




USA.gov is the U.S. government's official web portal to all federal, state and local government web resources and services.